Regional Weather Roundup
Issued by NWS Upton, NY

Current Version | Previous Version | Graphics & Text | Print | Product List | Glossary Off
Versions: 1 2 3 4 5 6 7 8 9 10 11 12 13 14 15 16 17 18 19 20 21 22 23 24 25 26 27 28 29 30 31 32 33 34 35 36 37 38 39 40 41 42 43 44 45 46 47 48 49 50

069
ASUS41 KOKX 211609
RWROKX

REGIONAL WEATHER ROUNDUP
NATIONAL WEATHER SERVICE NEW YORK NY
1200 PM EDT SAT OCT 21 2017

NOTE: "FAIR" INDICATES FEW OR NO CLOUDS BELOW 12,000 FEET WITH NO
SIGNIFICANT WEATHER AND/OR OBSTRUCTIONS TO VISIBILITY.

NYZ071-072-176-178-NJZ106-104-211700-
NEW YORK CITY METRO AREA

CITY           SKY/WX    TMP DP  RH WIND       PRES   REMARKS
Central Park   SUNNY     72  36  26 W5        30.36S
Bronx Bot Gard   N/A     73  43  33 SW7       30.34S
LaGuardia APRT MOSUNNY   73  45  36 CALM      30.33S
Kennedy INTL   MOSUNNY   74  43  32 W6        30.35S
Breezy Point     N/A     64 N/A N/A W6          N/A
Newark/Liberty MOSUNNY   75  35  23 SW5       30.34S
Teterboro      SUNNY     72  37  28 S3        30.33S
$$

NYZ177-179-078>081-211700-
LONG ISLAND NEW YORK

CITY           SKY/WX    TMP DP  RH WIND       PRES   REMARKS
Jones Beach      N/A     66 N/A N/A W5          N/A
Matinecock PT    N/A     66 N/A N/A SW6         N/A
Farmingdale    SUNNY     74  40  29 VRB5      30.34S
MacArthur/ISP  MOSUNNY   74  43  32 W5        30.33S
Shirley        SUNNY     75  51  43 SE5       30.33S
Mt Sinai Harb    N/A    N/A N/A N/A N1          N/A
Westhampton    SUNNY     74  41  30 CALM      30.34F
East Hampton   FAIR      69  40  34 CALM      30.33S
Montauk          N/A     68  51  54 VRB3      30.34S
$$

NYZ052-065-067-211700-
HUDSON VALLEY

CITY           SKY/WX    TMP DP  RH WIND       PRES   REMARKS
White Plains   SUNNY     75  38  26 NW3       30.33S
Larchmont Harb   N/A     64 N/A N/A S7          N/A
Croton On Huds   N/A     63 N/A N/A MISG        N/A
Newburgh       SUNNY     70  45  40 W6        30.34F
Montgomery     SUNNY     69  46  43 SW7       30.32F
Poughkeepsie   SUNNY     66  42  41 NW3       30.32F
Albany         MOSUNNY   64  41  42 S6        30.32F
$$

NJZ001-105-106-008-010-013-015-019>022-104-211700-
NEW JERSEY

CITY           SKY/WX    TMP DP  RH WIND       PRES   REMARKS
Newark/Liberty MOSUNNY   75  35  23 SW5       30.34S
Teterboro      SUNNY     72  37  28 S3        30.33S
Caldwell       SUNNY     69  42  37 S6        30.34F
Somerville     SUNNY     73  46  38 CALM      30.33F
Linden         FAIR      73  38  27 CALM      30.34F
Perth Amboy      N/A     68 N/A N/A CALM        N/A
Sussex         SUNNY     70  44  39 VRB5      30.34F
Andover          N/A     69  41  36 S3        30.36S
Trenton        SUNNY     72  42  34 CALM      30.35F
Millville      SUNNY     73  46  38 CALM      30.36S
Atlantic City  SUNNY     73  42  32 E6        30.36S
Wrightstown    SUNNY     72  41  33 CALM      30.33F
Toms River       N/A     73  44  35 CALM      30.35F
Belmar         SUNNY     74  38  27 CALM      30.35F
$$

PAZ047>061-062-071-211700-
EASTERN PENNSYLVANIA

CITY           SKY/WX    TMP DP  RH WIND       PRES   REMARKS
Philadelphia   MOSUNNY   71  45  39 VRB3      30.36S
Allentown      SUNNY     68  42  38 CALM      30.36F
Scranton       SUNNY     64  43  46 W3        30.36F
$$

CTZ002-004>006-009-010-012-RIZ004-006-007-MAZ004-011-015-211700-
SOUTHERN NEW ENGLAND
 IN CT

CITY           SKY/WX    TMP DP  RH WIND       PRES   REMARKS
Bradley INTL   MOSUNNY   68  44  42 VRB3      30.31F
Hartford       SUNNY     69  45  41 S5        30.31F
Danbury        SUNNY     72  44  36 CALM      30.34F
Wtrbury/Oxford SUNNY     71  39  31 SW3       30.34S
Norwalk Harbor NOT AVBL
Bridgeport     SUNNY     70  46  42 SW6       30.33S
Meriden        SUNNY     71  39  31 CALM      30.32S
New Haven      SUNNY     71  43  36 VRB3      30.33S
Chester        FAIR      75  36  23 W6        30.33R
Groton         SUNNY     66  50  56 S6        30.32S
Wilimantic     SUNNY     73  40  30 VRB3      30.32S

 IN RI

CITY           SKY/WX    TMP DP  RH WIND       PRES   REMARKS
Providence     MOSUNNY   70  48  45 SE7       30.31F
Block Island   SUNNY     68  44  42 SW8       30.33F
Westerly       SUNNY     69  43  38 SW5       30.32F
 IN MA

CITY           SKY/WX    TMP DP  RH WIND       PRES   REMARKS
Boston         MOSUNNY   72  39  30 W7        30.28F
Worcester      SUNNY     67  36  31 W9        30.31S
Westfield      SUNNY     68  42  38 SW6       30.31S
Provincetown   SUNNY     67  41  38 SW9       30.30F
Nantucket      SUNNY     64  53  67 SW9       30.33R
$$

ANZ330-335-338-340-345-350-353-355-211700-
COASTAL MARINE OBSERVATIONS


STATION/POSITION TIME  SKY/WX   TEMP    WIND        PRES    VSBY  WAVE
                                AIR SEA DIR/SP/G                  HT/PER
                 (UTC)          (F)     (DEG/KT/KT) (MB)    (MI)  (FT/S)
NY HARB ENTRANCE 1450            63 64  280/  4/  6 1027.1          1/ 9
20 S FIRE ISLAND 1450            64 64   50/  4/  4 1027.5          2/ 8
GREAT SOUTH BAY  1515            63 62  180/  4/  6   N/A
15 E BARNEGAT LI NOT AVBL
HUDSON CANYON    1450            64 65   50/  6/  6 1026.8          2/ 8
KINGS POINT      1548            68 65     CALM     1027.9
EXECUTION ROCKS  1530            68     190/  6/  6   N/A
WESTERN LI SOUND 1449            64     210/  4/  6   N/A           0
CENTRAL LI SOUND NOT AVBL
EASTERN LI SOUND NOT AVBL
ROBBINS REEF     1548            68     300/  4/  4 1027.9
$$


>>>>>>>>>>>>>>>>>>>>>>>>>>>> KEY <<<<<<<<<<<<<<<<<<<<<<<<<<<
>                                                          <
>     SKY/WX - Sky Condition/Present Weather               <
>     TMP    - Temperature in Fahrenheit                   <
>     DP     - Dew Point in Fahrenheit                     <
>     RH     - Relative Humidity in Percent                <
>     WIND   - Direction (from) and Speed in MPH           <
>     PRES   - Mean Sea Level Pressure (inches of Hg)      <
>     WCI    - Wind Chill Index                            <
>     VSB    - VISIBILITY IN MILES                         <
>     HX     - HEAT INDEX                                  <
>     TC     - TEMPERATURE IN CELSIUS                      <
>     VRB    - VARIABLE WIND DIRECTION                     <
>                                                          <
>>>>>>>>>>>>>>>>>>>>>>>>>>>> KEY <<<<<<<<<<<<<<<<<<<<<<<<<<<




USA.gov is the U.S. government's official web portal to all federal, state and local government web resources and services.